AirNav   ATP
 
 303 users online  

25AL Lucas Army Heliport
Fort Rucker/Goodman, Alabama, USA

GOING TO FORT RUCKER/GOODMAN?


FAA INFORMATION EFFECTIVE 01 FEBRUARY 2018

Location

FAA Identifier: 25AL
Lat/Long: 31-16-11.5500N / 086-02-27.3800W
31-16.192500N / 086-02.456333W
31.2698750 / -86.0409389
(estimated)
Elevation: 336 ft. / 102 m (estimated)
Variation: 02W (2000)
From city: 2 miles SW of central business district of the associated city
Time zone: UTC -6 (UTC -5 during Daylight Saving Time)
Zip code: 36323

Heliport Operations

Heliport use: Private use. Permission required prior to landing
Activation date: 05/2002
Control tower: no
ARTCC: JACKSONVILLE CENTER
FSS: ANNISTON FLIGHT SERVICE STATION
NOTAMs facility: OZR (NOTAM-D service available)
Attendance: UNATNDD EXCP DURG TRNG
Segmented circle: no

Heliport Communications

OPNS: 126.2
WX AWOS-3 at EDN (7 nm E): 118.9 (334-347-3524)
WX ASOS at 79J (18 nm W): 134.875 (334-222-9770)

Nearby radio navigation aids

VOR radial/distance  VOR name  Freq  Var
EDNr260/(7.3)ENTERPRISE VOR116.6003W
OZRr273/16.1CAIRNS VOR/DME111.2003W
HEYr256/(20.9)HANCHEY VOR110.6003W
RRSr266/31.3WIREGRASS VORTAC111.6002E

 
NDB name  Hdg/Dist  Freq  Var  ID
BOLL WEEVIL219/5.235203WBVG -... ...- --.
RUCKR283/11.821200EOZ --- --..
LOWE253/16.226903WLOR .-.. --- .-.
JUDD099/18.126402WJUY .--- ..- -.--
HANCHEY255/20.822103WHYE .... -.-- .
BLOOD178/33.836504WTOI - --- ..

Heliport Services

Runway Information

Helipad H1

Dimensions: 1600 x 75 ft. / 488 x 23 m
Surface: asphalt
Traffic pattern: leftleft

Helipad H2

Dimensions: 1600 x 75 ft. / 488 x 23 m
Surface: asphalt
Traffic pattern: leftleft

Helipad H3

Dimensions: 1600 x 75 ft. / 488 x 23 m
Surface: asphalt
Traffic pattern: leftleft

Helipad H4

Dimensions: 1600 x 75 ft. / 488 x 23 m
Surface: asphalt
Traffic pattern: leftleft

Helipad H5

Dimensions: 1600 x 75 ft. / 488 x 23 m
Surface: asphalt
Traffic pattern: leftleft

Helipad H6

Dimensions: 1600 x 75 ft. / 488 x 23 m
Surface: asphalt
Traffic pattern: leftleft

Helipad H7

Dimensions: 1600 x 75 ft. / 488 x 23 m
Surface: turf
Traffic pattern: leftleft

Heliport Ownership and Management from official FAA records

Ownership: U.S. Army
Owner: US ARMY AVIATION CTR & FORT RUCKER
NOVOSEL ST
FORT RUCKER, AL 36362
Phone 334-255-9764
Manager: JACK A HOLMES
USAACE G3 AIR,
FORT RUCKER, AL 36362
Phone 334-255-9764

Instrument Procedures

There are no published instrument procedures at 25AL.

Some nearby airports with instrument procedures:

KEDN - Enterprise Municipal Airport (7 nm E)
KLOR - Lowe Army Heliport (Fort Rucker) (16 nm E)
33J - Geneva Municipal Airport (16 nm SE)
KOZR - Cairns Army Airfield (Fort Rucker) (17 nm E)
79J - South Alabama Regional Airport at Bill Benton Field (18 nm W)
0J4 - Florala Municipal Airport (19 nm SW)
 
Loc | Ops | Rwys | IFR | FBO | Links
Com | Nav | Svcs | Stats | Notes

AirNav Hotels Sweepstakes
 
Area around 25AL (Lucas Army Heliport)
 
Road maps at: MapQuest Bing Google
 
Aerial photo
No photo
 
Sectional chart

 
Airport distance calculator
Flying to Lucas Army Heliport? Find the distance to fly.

From to 25AL

Sunrise and sunset
Times for 20-Feb-2018
 Local
(UTC-6)
 Zulu
(UTC)
Morning civil twilight05:5711:57
Sunrise06:2212:22
Sunset17:3423:34
Evening civil twilight17:5923:59

Current date and time
Zulu (UTC)  20-Feb-2018 09:49:39
Local (UTC-6)  20-Feb-2018 03:49:39
 
METAR
KEDN 
7nm E 
200935Z AUTO 12005KT 10SM CLR 16/15 A3026 RMK AO2 T01620151
KSXS 
11nm NE 
200858Z AUTO M M M M M M RMK AO2 SLPNO PWINO PNO FZRANO TSNO $
KLOR 
16nm E 
200858Z AUTO 00000KT 10SM CLR 14/14 A3026 RMK AO2 SLP229 T01410137 55000
KOZR 
17nm E 
200856Z 00000KT 10SM CLR 17/15 A3026 RMK AO2A SLPNO T01650145 $
K79J 
19nm W 
200856Z AUTO 10003KT 10SM BKN060 17/14 A3023 RMK AO2 SLP234 T01670144 58001
TAF
KOZR 
17nm E 
200800Z 2008/2114 11006KT 9999 SCT035 510052 QNH3024INS BECMG 2011/2012 11009KT 4800 BR BKN010 510052 QNH3025INS BECMG 2015/2016 13012KT 9999 NSW BKN015 510052 QNH3028INS BECMG 2017/2018 14012G18KT 9999 BKN020 QNH3027INS BECMG 2023/2024 15006KT 8000 BR BKN015 QNH3033INS TX27/2020Z TN16/2010Z
NOTAMs
Click for the latest NOTAMs
NOTAMs are issued by the DoD/FAA and will open in a separate window not controlled by AirNav.

 

 
 

Would you like to see your business listed on this page?

 If your business provides an interesting product or service to pilots, flight crews, aircraft, or users of the Lucas Army Heliport, you should consider listing it here.  To start the listing process, click on the button below
 
Add a business
 

Other Pages about Lucas Army Heliport

Update a link
 
Copyright © AirNav, LLC. All rights reserved. Privacy Policy  Contact